sat.trackr.live / text

‹ back to catalog

STARLINK-6355

NORAD 57356 · 2023-099AE

PAYLOAD ACTIVE UNKNOWN

§ Identity

Operator
Country
US
Launch date
2023-07-16
Launch site
AFETR
Launch vehicle
Mass (kg)
RCS (m²)

Purposes: comms

External: N2YO · Heavens-Above · Gunter

§ Orbital elements

Epoch: 2026-05-24T18:43:43.929984Z

Period
94.27 min
Inclination
43.0003°
Eccentricity
0.0001154
Mean motion
15.27579620 rev/d
Perigee alt
482.3 km
Apogee alt
483.8 km
Semi-major
6,861.2 km
B*
5.3777e-5
RAAN
172.1940°
Arg perigee
276.9362°
Mean anomaly
83.1358°
Rev number
15,783

§ Raw data

STARLINK-63551 57356U 23099AE  26144.78036956  .00001218  00000+0  53777-4 0  99942 57356  43.0003 172.1940 0001154 276.9362  83.1358 15.27579620157834

JSON: /api/v1/satellites/57356 · /tle

For live sub-satellite position, see the globe view (requires WebGL).

§ Visibility from observer

Set your observer location to see the next 7 days of passes ≥ 10°. The values pass through the URL so the page stays shareable.

No JS? Fill the form by hand. The geolocation button needs JavaScript.